These data are preliminary and have not undergone final quality control by the National Climatic Data Center (NCDC). Therefore, these data are subject to revision. Final and certified climate data can be accessed at the NCDC - http://www.ncdc.noaa.gov.

Regional Weather Roundup


000
ASUS46 KPQR 141410
RWROR

OREGON REGIONAL WEATHER ROUNDUP
NATIONAL WEATHER SERVICE PORTLAND OR
700 AM PDT WED APR 14 2021

NOTE: "FAIR" INDICATES FEW OR NO CLOUDS BELOW 12,000 FEET WITH
NO SIGNIFICANT WEATHER AND/OR OBSTRUCTIONS TO VISIBILITY.

ORZ001>013-141500-
NORTHWEST OREGON


CITY           SKY/WX    TMP DP  RH WIND       PRES   REMARKS
ASTORIA        CLEAR     35  30  82 SE3       30.19S
TILLAMOOK      CLEAR     32  30  93 CALM      30.20R
NEWPORT        CLEAR     37  28  70 CALM      30.17R
FLORENCE       FAIR      37  31  80 CALM      30.13R
PORTLAND       PTCLDY    46  27  47 NW10      30.19R
VANCOUVER WA   CLEAR     42  25  50 CALM      30.19R
SCAPPOOSE      CLEAR     36  29  75 CALM      30.19R
HILLSBORO      CLEAR     34  28  79 CALM      30.18R
AURORA         CLEAR     45  27  49 N12       30.17R
MCMINNVILLE    CLEAR     42  28  57 N8        30.16R
SALEM          CLEAR     35  25  66 CALM      30.15
CORVALLIS      CLEAR     49  24  37 N9        30.13S
EUGENE         PTCLDY    37  27  67 N7        30.12
CRESWELL       CLEAR     30  30 100 CALM      30.12R

ORZ021-028-141500- SOUTHWEST OREGON CITY SKY/WX TMP DP RH WIND PRES REMARKS NORTH BEND CLEAR 37 31 78 CALM 30.11R BROOKINGS CLEAR 56 18 22 VRB5G17 30.01R ROSEBURG CLEAR 35 24 64 CALM 30.10R SEXTON SUMMIT CLEAR 37 13 37 N13G20 30.01R WCI 29 GRANTS PASS FAIR 34 23 64 CALM 30.09R MEDFORD CLEAR 37 24 59 CALM 30.04R
ORZ014>016-041-141500- COLUMBIA GORGE CITY SKY/WX TMP DP RH WIND PRES REMARKS TROUTDALE CLEAR 36 27 69 VRB3 30.19 HOOD RIVER CLEAR 34 27 75 MISG 30.21R THE DALLES CLEAR 38 25 59 CALM 30.21R
ORZ029>031-041-044-049-050-061>064-502-503-505>511-141500- EASTERN OREGON CITY SKY/WX TMP DP RH WIND PRES REMARKS MADRAS CLEAR 30 16 55 NW3 30.16R REDMOND CLEAR 35 14 42 NW13 30.11R WCI 26 BEND CLEAR 34 12 40 NW6G12 30.12R PRINEVILLE CLEAR 32 14 47 W13 30.09R WCI 22 KLAMATH FALLS PTCLDY 31 12 45 N7 30.00R LAKEVIEW PTCLDY 27 17 66 N10 29.98R WCI 17 HERMISTON CLEAR 43 21 41 N8 30.15 PENDLETON CLEAR 28 19 69 E7 30.11R JOHN DAY PTCLDY 32 14 47 W8 30.01R MEACHAM CLEAR 23 16 74 CALM 30.03R LA GRANDE CLEAR 35 14 42 N23G29 30.03R WCI 23 BAKER CITY PTCLDY 32 13 45 NW20 30.00R WCI 20 BURNS PTCLDY 34 13 41 NW10 29.95R WCI 26 ROME N/A 33 10 38 CALM 29.91R ONTARIO MOCLDY 41 14 33 NW15 29.96R
OTHER REGIONAL REPORTS CITY SKY/WX TMP DP RH WIND PRES REMARKS SEATTLE CLEAR 43 32 65 N12 30.23R SPOKANE PTCLDY 40 13 33 NE9 30.20F VANCOUVER BC PTCLDY 45 39 81 NW14 30.26F PRINCE GEORGE CLEAR 27 23 86 VRB2 30.38S DAWSON CREEK CLEAR 32 25 74 VRB2 30.36R WHITEHORSE PTCLDY 36 28 75 S20G29 30.11F WCI 25 BOISE CLOUDY 38 19 46 VRB5 29.91R REDDING CLEAR 52 29 41 N12 29.92R SAN FRANCISCO PTCLDY 50 43 77 SE7 29.93R